Vorticity
7 8 8 7 9 13 13 16 21 13 14 26 10 7 14 9 8 13 13 18 16 12 4 17 17 11 -0 -12 -10 4 20 8 12 16 17 17 3 9 9 -4 -2 10 -13 30
8 9 9 9 10 11 15 15 21 10 20 7 7 12 12 12 11 11 8 3 4 7 13 24 11 10 17 12 7 2 -16 9 27 18 22 37 30 27 29 15 15 7 4 -24
8 9 9 9 10 11 13 17 20 10 28 9 11 12 13 6 13 15 12 6 16 11 7 14 -1 -4 7 3 0 6 14 25 -1 -22 -38 -56 -6 -8 -16 -21 0 6 -0 -6
9 10 10 9 9 11 14 13 8 8 -1 7 9 13 13 12 3 9 13 14 -1 5 20 7 47 10 -6 6 34 15 15 14 16 10 11 12 10 11 12 12 10 3 -1 2
9 9 8 8 10 11 11 12 14 10 13 9 12 8 -0 8 6 4 12 5 7 6 13 3 4 -2 5 25 8 21 0 8 -1 13 19 30 22 24 20 13 9 11 5 7
8 8 8 7 8 10 12 13 10 12 9 9 18 -5 6 2 6 17 7 7 4 5 19 -1 2 14 15 6 0 3 7 18 -6 27 -4 1 41 55 34 35 29 27 20 33
8 8 7 7 9 10 11 9 11 12 5 13 8 17 9 12 4 14 8 -4 13 6 3 5 28 40 21 21 22 30 -1 4 13 -4 13 31 -13 -18 28 21 10 17 19 10
9 8 8 8 9 10 10 8 9 8 12 14 20 22 -5 18 13 11 -1 24 9 9 22 24 30 3 25 11 18 28 30 17 -2 -7 -7 -29 9 32 4 16 3 10 10 28
10 9 10 10 10 9 9 10 10 9 8 -7 13 -17 38 5 6 14 7 19 11 -1 20 11 -4 -19 14 18 14 11 7 11 1 -15 3 33 -10 -49 -4 -31 7 62 1 -6
10 11 11 11 10 11 9 11 13 8 11 27 -20 34 8 8 8 15 8 8 2 27 8 4 13 12 6 15 -1 -16 -6 -13 -11 7 5 25 10 17 21 27 26 -20 -16 -7
10 10 10 12 12 11 20 13 10 9 5 7 13 2 19 32 22 14 13 12 31 -4 16 10 12 8 3 10 10 14 12 9 8 9 9 22 32 12 -9 -19 18 1 2 -7
10 9 11 11 12 14 11 4 4 5 3 -0 5 24 29 22 -9 10 13 -10 15 -4 -4 -14 -0 -11 -4 1 5 11 12 13 3 9 -1 -29 -19 -3 10 -0 11 10 8 21
9 8 10 13 16 17 16 11 7 13 -2 24 -16 0 -2 12 22 35 10 -1 29 13 15 12 10 10 7 1 2 9 4 4 2 6 8 12 12 9 15 24 16 11 -0 -2
8 12 15 13 17 18 11 8 8 12 11 23 -7 11 16 34 -9 20 20 14 16 14 13 14 14 11 22 10 -1 -3 3 8 14 6 7 18 15 -2 -4 -7 20 35 20 0
13 13 17 19 15 11 12 14 10 17 16 -6 13 14 10 -9 14 13 25 23 9 5 8 3 2 7 17 17 24 22 44 30 20 4 -6 1 -5 6 29 16 0 13 -0 10
14 19 16 10 9 11 11 5 23 -2 13 12 16 17 -26 38 4 27 -18 -8 14 17 22 11 8 17 8 27 3 -15 -18 -1 2 14 17 18 8 9 10 8 4 6 5 5
16 16 13 8 8 7 16 18 14 13 12 7 9 40 1 26 8 18 -18 5 8 21 21 18 30 18 34 27 45 -7 -3 3 10 11 15 7 6 3 1 4 8 12 13 16
14 10 11 10 11 19 15 6 6 6 13 24 24 2 28 3 16 -14 4 22 11 17 19 6 12 34 32 -3 2 12 11 9 12 19 18 20 29 26 27 27 22 18 9 3
11 8 9 14 20 10 8 11 18 29 63 21 6 2 19 -4 -18 13 30 14 20 18 13 34 31 -1 -13 2 10 11 16 24 26 24 23 27 23 26 25 25 24 30 29 13
7 13 18 14 9 21 29 27 14 16 10 4 -2 5 8 -9 27 7 30 28 11 16 18 31 -15 -14 5 8 8 10 25 28 24 22 21 19 22 27 32 30 23 20 35 24
14 12 11 24 25 24 20 11 4 15 -0 28 -14 -2 3 17 12 12 39 7 19 14 -20 49 3 -25 7 9 8 10 28 27 23 23 22 23 27 33 50 48 37 36 40 10
8 9 20 21 25 15 11 7 -1 22 3 -25 22 12 15 14 21 32 19 21 13 14 24 14 4 -15 8 7 9 11 15 27 22 25 21 32 41 39 40 39 26 13 6 9
8 21 27 26 5 10 3 -3 -1 8 -6 17 12 12 5 33 3 18 23 13 -5 36 12 3 -22 10 10 7 7 14 6 14 28 25 23 24 18 13 7 3 4 14 20 14
18 20 17 15 4 -8 -1 2 8 17 15 9 3 14 5 15 53 12 11 1 24 13 14 -5 5 6 10 13 7 7 13 10 7 20 26 24 20 16 14 13 13 15 14 11
21 28 14 -6 -6 10 9 16 14 12 7 35 33 33 37 31 12 11 10 11 11 6 -2 5 5 8 9 13 8 7 8 11 11 10 11 15 23 25 27 28 29 27 28 32
26 19 -4 2 8 7 -0 16 10 24 29 38 37 19 11 12 8 15 11 14 8 5 4 6 6 12 11 8 9 8 11 7 11 10 12 11 10 12 13 13 14 17 21 27
1 5 10 8 11 14 10 13 16 28 16 18 11 11 10 15 8 12 18 16 9 7 6 6 10 11 6 9 8 10 13 9 8 12 10 9 11 11 13 12 14 11 12 14
Height
3118 3113 3107 3102 3100 3097 3092 3088 3084 3079 3075 3072 3069 3067 3065 3065 3061 3057 3054 3050 3048 3048 3049 3047 3048 3045 3040 3037 3035 3033 3032 3028 3025 3022 3020 3019 3017 3018 3019 3018 3014 3011 3008 3000
3115 3110 3105 3100 3095 3090 3087 3084 3080 3077 3073 3072 3067 3063 3061 3058 3056 3055 3052 3050 3047 3045 3045 3045 3042 3039 3036 3034 3033 3030 3028 3026 3022 3016 3016 3013 3013 3014 3014 3014 3013 3008 3005 2993
3111 3106 3102 3096 3092 3089 3087 3082 3078 3073 3070 3067 3065 3062 3058 3055 3051 3049 3049 3047 3045 3042 3041 3040 3037 3035 3032 3030 3029 3026 3024 3020 3021 3017 3013 3011 3012 3012 3012 3012 3008 3004 2993 2990
3107 3103 3100 3094 3089 3087 3085 3080 3076 3072 3070 3065 3062 3060 3059 3054 3051 3045 3044 3043 3041 3039 3038 3035 3032 3030 3027 3026 3024 3021 3019 3013 3013 3009 3008 3007 3004 3002 3002 3002 2997 3001 2986 2987
3102 3098 3095 3092 3087 3083 3081 3079 3075 3071 3067 3064 3060 3055 3053 3051 3049 3047 3041 3040 3037 3036 3033 3033 3027 3025 3025 3020 3018 3017 3014 3007 3005 2998 2998 2998 2994 2993 2992 2988 2985 2988 2982 2977
3097 3092 3087 3084 3083 3080 3076 3074 3071 3069 3067 3062 3060 3057 3051 3048 3045 3044 3039 3034 3031 3030 3028 3024 3020 3018 3016 3012 3010 3010 3010 3006 3004 2994 2994 2993 2988 2984 2983 2981 2980 2980 2976 2978
3094 3090 3085 3080 3076 3073 3072 3069 3066 3062 3060 3057 3053 3052 3049 3044 3041 3039 3037 3032 3027 3026 3019 3015 3012 3009 3005 3003 3002 3004 3003 3004 3004 2994 2994 2986 2980 2978 2977 2975 2973 2972 2969 2968
3091 3086 3081 3077 3072 3068 3066 3063 3060 3056 3052 3053 3050 3047 3044 3040 3037 3035 3030 3027 3023 3019 3015 3011 3008 3005 3004 3002 3001 2999 2998 3001 2999 2994 2989 2978 2974 2976 2974 2971 2972 2969 2966 2964
3087 3083 3078 3073 3069 3065 3062 3059 3056 3052 3048 3049 3044 3042 3039 3037 3032 3029 3028 3024 3020 3015 3013 3012 3009 3005 3004 3003 3001 2998 2998 2996 2997 2992 2987 2979 2972 2972 2973 2970 2965 2965 2961 2960
3081 3078 3074 3070 3066 3061 3058 3054 3051 3049 3045 3043 3041 3038 3034 3031 3027 3022 3022 3018 3016 3012 3011 3009 3007 3003 3003 2999 2997 2997 2995 2992 2989 2984 2980 2972 2970 2970 2970 2967 2968 2958 2955 2952
3077 3072 3069 3065 3061 3056 3054 3050 3047 3044 3034 3034 3035 3035 3028 3026 3024 3020 3019 3015 3013 3010 3007 3005 3002 2997 2997 2994 2993 2993 2991 2988 2983 2980 2975 2966 2967 2967 2965 2960 2952 2949 2948 2945
3071 3067 3064 3061 3056 3052 3049 3047 3043 3040 3036 3030 3029 3028 3023 3022 3020 3015 3012 3010 3009 3007 3002 3000 2996 2992 2990 2989 2981 2987 2982 2983 2975 2976 2967 2964 2957 2955 2954 2953 2948 2943 2939 2934
3066 3062 3059 3055 3051 3047 3044 3041 3037 3032 3027 3021 3020 3021 3019 3014 3012 3009 3006 3004 3001 2999 2999 2994 2989 2986 2985 2980 2975 2974 2974 2974 2967 2962 2959 2953 2951 2948 2946 2943 2938 2935 2932 2925
3062 3058 3054 3050 3046 3042 3041 3038 3034 3029 3023 3015 3015 3017 3012 3009 3007 3004 3000 2997 2994 2992 2991 2987 2982 2979 2975 2971 2969 2967 2966 2964 2957 2949 2946 2941 2940 2939 2936 2932 2926 2923 2919 2916
3056 3052 3049 3044 3042 3039 3035 3032 3030 3025 3022 3014 3007 3009 3006 3004 3000 2997 2995 2993 2990 2986 2983 2980 2976 2972 2968 2962 2961 2956 2956 2953 2949 2940 2939 2933 2924 2925 2922 2916 2914 2912 2908 2904
3050 3046 3043 3038 3037 3033 3029 3025 3024 3021 3016 3009 3004 3003 3002 3000 2997 2994 2992 2988 2985 2980 2975 2970 2966 2965 2964 2956 2955 2957 2949 2946 2942 2933 2928 2921 2914 2910 2907 2901 2899 2898 2895 2894
3045 3041 3038 3035 3031 3028 3026 3022 3019 3014 3011 3008 3001 2998 2996 2996 2993 2989 2987 2983 2978 2973 2968 2961 2959 2958 2957 2954 2952 2947 2943 2937 2930 2924 2913 2905 2902 2893 2892 2889 2886 2884 2883 2884
3040 3037 3032 3031 3026 3023 3020 3016 3014 3010 3007 3003 3000 2996 2994 2991 2988 2984 2982 2975 2971 2965 2962 2958 2956 2955 2954 2953 2949 2942 2933 2923 2916 2908 2901 2890 2882 2879 2875 2873 2870 2868 2869 2871
3036 3033 3029 3025 3021 3017 3013 3010 3007 3004 3003 3000 2998 2996 2993 2989 2986 2981 2975 2970 2964 2961 2958 2956 2957 2955 2955 2953 2943 2934 2924 2911 2898 2890 2885 2878 2869 2862 2859 2855 2853 2852 2856 2859
3032 3028 3025 3017 3015 3011 3009 3004 3004 3002 3000 2998 2997 2995 2992 2989 2983 2978 2974 2967 2963 2960 2959 2956 2956 2958 2957 2950 2941 2931 2918 2905 2893 2881 2871 2864 2857 2850 2844 2839 2839 2840 2843 2849
3028 3023 3019 3016 3011 3008 3005 3005 3004 3002 3000 2997 2995 2993 2988 2985 2981 2977 2973 2968 2964 2962 2961 2956 2959 2957 2951 2945 2937 2927 2914 2901 2890 2880 2870 2861 2850 2839 2831 2829 2830 2834 2838 2844
3025 3021 3015 3012 3009 3007 3007 3005 3004 3002 2999 2996 2991 2988 2984 2981 2977 2974 2971 2968 2965 2963 2962 2960 2960 2957 2951 2943 2934 2924 2912 2898 2887 2878 2868 2859 2851 2842 2836 2835 2836 2839 2842 2844
3022 3018 3014 3011 3011 3009 3006 3005 3002 2999 2994 2990 2986 2983 2980 2977 2975 2973 2970 2968 2966 2964 2963 2964 2962 2957 2951 2943 2933 2925 2915 2903 2891 2882 2873 2865 2857 2853 2849 2847 2846 2845 2844 2844
3019 3016 3013 3012 3010 3008 3006 3002 2998 2994 2988 2984 2980 2977 2976 2973 2973 2971 2970 2968 2966 2965 2965 2964 2960 2955 2949 2943 2935 2927 2917 2907 2897 2888 2880 2873 2866 2860 2857 2854 2851 2849 2847 2845
3017 3015 3012 3010 3009 3006 3002 2997 2992 2987 2981 2975 2972 2970 2970 2969 2970 2970 2970 2969 2968 2968 2967 2964 2960 2955 2949 2944 2936 2929 2922 2913 2905 2898 2890 2883 2876 2869 2864 2860 2856 2852 2849 2846
3015 3012 3011 3009 3005 3002 2997 2992 2987 2981 2974 2970 2968 2969 2969 2970 2970 2971 2970 2970 2969 2969 2967 2964 2960 2955 2950 2944 2938 2932 2926 2920 2913 2906 2900 2893 2887 2881 2876 2871 2866 2862 2857 2853
3012 3010 3008 3005 3002 2998 2993 2988 2983 2979 2976 2972 2972 2971 2971 2971 2971 2971 2970 2970 2969 2969 2967 2964 2960 2955 2950 2945 2940 2935 2930 2925 2919 2914 2908 2902 2897 2893 2888 2881 2877 2875 2871 2868